Temp
78 81 82 81 80 78 77 76 76 76 75 76 76 76 75 75 75 76 76 76 75 78 79 79 78 81 75 78 75 75 76 76 76 75 75 75 75 74 75 74 74 73 73 73 73 72 73 73 72 73 73 74 74 78 86 86 87 85 85 83 80 80
75 75 75 76 78 79 76 77 77 77 78 77 76 77 77 79 78 80 77 77 79 80 80 80 81 79 80 78 77 75 75 75 75 75 75 74 75 74 75 74 73 74 73 73 72 78 76 73 73 73 74 73 76 85 85 86 87 87 85 82 80 76
75 75 75 77 77 78 78 77 79 79 79 77 78 78 80 81 82 82 82 82 78 80 81 81 80 81 82 78 78 75 75 75 75 75 74 74 74 75 74 74 74 73 73 72 77 83 82 81 79 74 74 76 82 86 85 85 86 85 83 80 79 74
74 75 77 78 77 77 79 78 77 79 77 78 80 80 80 82 82 82 81 78 78 79 76 76 81 81 79 79 76 74 74 75 75 74 74 76 74 75 75 74 74 74 74 79 83 87 86 85 84 81 81 84 86 85 86 86 87 85 82 81 80 74
77 77 78 78 78 77 78 77 76 75 72 74 77 79 78 78 77 79 75 75 78 77 76 78 81 80 81 80 79 78 77 78 78 79 74 81 80 80 78 80 79 77 82 83 87 88 88 86 85 86 86 86 86 86 87 86 86 86 82 79 77 74
77 78 76 75 79 79 78 76 75 73 73 73 75 76 76 74 75 77 74 74 78 77 78 77 77 79 81 81 81 80 80 81 80 81 80 83 83 81 82 83 82 82 83 85 87 87 87 86 86 86 86 85 85 86 88 89 87 85 81 79 77 74
77 77 77 80 78 78 77 75 74 73 72 72 74 76 75 76 75 74 74 73 74 76 77 76 76 79 80 81 81 83 83 82 81 82 81 84 83 83 84 84 84 83 84 86 88 88 87 87 87 87 86 87 87 87 87 87 87 85 83 80 76 73
75 77 77 76 76 77 73 73 73 73 72 73 74 73 73 74 75 74 76 75 76 75 73 72 72 74 78 78 81 82 83 83 83 83 83 85 83 84 84 85 83 85 85 87 88 87 88 87 86 86 86 86 86 86 87 88 86 86 84 79 78 74
74 72 72 72 73 72 72 72 72 72 73 74 74 74 77 74 75 74 74 76 75 74 70 72 73 71 72 75 78 80 81 82 82 84 84 85 84 81 83 84 84 85 86 87 87 86 87 87 85 85 86 86 85 84 85 86 86 88 86 84 79 75
74 73 71 74 71 73 72 72 72 72 72 76 74 78 80 82 82 80 83 82 79 76 74 74 76 73 71 72 74 77 80 80 81 85 84 83 84 84 83 84 84 85 87 87 87 86 86 85 87 85 86 84 83 84 84 85 86 87 86 83 78 75
75 74 73 72 71 72 73 74 71 73 75 78 80 81 83 84 84 84 83 82 82 80 77 76 76 75 73 71 70 74 77 79 81 83 84 83 84 83 84 83 83 83 85 87 86 87 86 85 86 86 85 86 83 84 84 85 85 86 86 84 81 79
72 72 70 72 72 73 74 76 78 78 79 82 83 83 85 84 84 85 84 82 81 77 78 76 74 75 73 70 70 73 76 79 82 83 83 84 84 84 83 84 85 84 85 85 85 86 86 85 85 86 86 83 83 84 84 84 84 84 84 83 82 81
74 72 73 72 74 75 77 81 80 79 80 82 82 83 83 84 84 84 82 82 82 81 80 76 76 77 73 71 71 71 72 74 79 81 82 83 84 84 83 83 82 84 83 83 83 84 86 85 84 84 84 82 83 84 84 84 83 83 82 83 82 82
76 75 74 75 74 76 78 79 82 83 83 82 83 83 83 84 84 84 84 82 82 82 80 80 80 77 76 75 72 70 70 73 79 79 80 81 81 82 82 80 78 83 81 81 81 82 83 82 84 84 82 83 83 83 83 83 82 81 82 82 82 81
76 76 76 77 78 79 79 82 84 84 84 83 83 83 85 84 83 83 85 84 82 81 81 81 80 77 76 74 72 71 70 69 73 78 76 80 80 81 81 80 82 82 81 78 82 81 82 81 81 81 81 82 82 81 81 81 81 81 81 81 81 81
77 78 78 79 80 80 81 81 83 83 83 82 83 84 84 84 83 85 84 84 82 82 82 81 80 79 76 77 75 72 70 72 73 78 78 77 76 76 79 80 82 82 79 79 80 80 81 81 81 80 80 80 80 80 80 80 79 80 82 81 81 80
78 79 79 80 80 80 80 82 82 83 84 83 83 83 83 84 83 82 84 84 82 81 81 80 80 79 77 77 77 72 69 71 73 76 77 73 76 77 76 79 80 81 81 77 80 80 79 80 80 79 79 79 78 79 78 78 78 79 80 80 79 79
79 80 80 79 79 80 81 81 83 83 82 83 82 84 84 85 84 84 83 83 84 82 80 81 80 78 77 77 76 73 70 70 70 72 72 71 73 75 73 79 77 79 80 79 79 79 78 80 79 79 78 77 77 78 78 77 78 77 77 78 78 76
79 79 79 79 79 80 80 80 80 82 82 81 82 82 83 84 84 84 83 80 82 83 81 81 79 77 76 76 75 73 70 70 70 70 68 69 70 71 73 78 77 75 78 80 80 79 79 79 78 78 77 76 77 77 77 78 75 75 73 77 75 74
78 79 79 78 78 78 79 80 79 81 80 81 82 82 82 83 83 83 83 82 82 81 78 79 79 76 75 73 73 73 72 70 68 68 69 69 68 69 72 73 76 75 74 78 77 79 80 78 78 76 75 76 77 76 73 74 75 74 76 73 72 74
79 78 77 78 77 77 77 78 78 79 78 81 81 80 80 81 82 82 82 82 77 72 76 79 72 69 70 71 72 72 71 70 70 70 70 70 71 72 70 72 75 74 73 72 76 79 79 78 76 73 74 74 74 76 75 75 73 73 73 76 72 75
79 79 79 78 77 77 78 79 78 78 78 76 75 79 79 81 80 80 79 77 76 77 77 78 73 71 72 72 71 71 71 71 71 70 70 71 71 71 69 70 73 70 73 72 74 79 78 77 73 71 68 70 70 73 72 71 71 73 75 74 72 74
77 77 78 78 79 78 78 79 79 77 73 71 71 68 69 69 71 70 70 71 73 74 76 78 73 74 74 73 72 71 70 69 70 70 69 68 68 68 67 69 68 70 71 73 73 77 77 76 71 73 74 70 66 64 65 67 69 71 72 73 74 76
76 77 77 78 78 78 78 78 79 78 78 77 74 73 72 72 73 74 71 73 72 74 76 79 79 78 75 74 73 72 72 69 70 70 69 67 67 67 67 67 67 68 72 68 71 75 77 76 76 75 67 67 68 67 62 65 66 69 73 72 74 74
77 77 78 78 78 78 78 77 77 78 78 76 76 76 74 77 76 75 74 73 73 76 76 79 79 77 75 74 74 73 71 71 69 70 69 68 67 68 67 68 68 68 70 69 70 75 75 76 76 77 74 69 64 61 62 68 68 69 73 69 73 74
77 77 78 77 77 77 76 76 75 74 73 73 73 75 74 73 72 75 76 78 76 77 79 80 79 78 77 74 72 73 72 70 68 68 69 69 69 68 67 68 68 68 68 73 70 73 72 75 75 75 75 74 72 67 66 67 67 62 70 71 72 74
77 77 77 77 78 77 76 76 75 75 75 74 74 75 75 75 75 76 77 76 78 78 79 78 78 79 79 77 74 71 72 71 69 68 68 68 68 68 67 67 68 70 68 68 71 73 71 73 73 74 74 74 73 72 74 67 65 66 61 66 66 71
74 74 75 77 78 77 75 75 75 75 76 75 75 74 75 76 77 77 77 77 78 78 78 79 78 79 79 77 73 70 71 70 69 68 66 66 67 68 68 68 68 70 73 76 75 74 72 73 68 69 73 72 72 73 76 73 72 68 67 63 64 70
71 73 74 74 75 76 76 76 76 76 74 76 76 76 78 78 77 77 76 77 76 78 79 78 79 78 78 77 74 71 70 67 68 68 66 67 68 69 68 68 67 68 70 74 74 74 73 69 70 70 70 68 71 73 74 74 73 72 64 68 65 66
72 73 73 73 75 75 75 74 74 73 72 73 75 76 76 76 76 77 76 76 76 77 78 78 77 77 77 78 76 75 72 70 69 67 66 67 68 69 68 69 69 68 69 68 72 73 73 68 70 73 72 70 67 69 72 71 70 70 73 70 69 71
70 72 72 73 73 73 74 75 75 74 73 73 73 73 73 74 76 76 75 76 77 77 77 78 77 76 76 77 76 75 72 71 69 67 66 66 67 68 68 68 69 68 67 67 68 69 69 69 75 74 72 72 71 71 69 68 69 71 71 70 69 70
69 69 70 70 71 72 73 74 74 74 73 73 73 73 72 72 74 76 76 75 77 77 77 77 77 77 75 76 75 74 74 72 69 67 65 65 67 69 70 70 69 67 67 67 68 68 68 67 73 73 72 73 73 73 71 69 70 72 72 73 72 70
67 68 68 69 69 70 71 71 72 72 72 73 73 73 74 74 75 75 76 74 74 73 75 76 76 75 75 75 74 73 72 71 71 69 68 68 69 70 70 70 69 69 67 67 66 68 66 70 72 71 72 73 72 72 70 72 73 71 72 74 74 72
67 68 68 68 69 69 69 70 72 72 72 72 72 73 74 74 75 76 76 73 71 69 68 71 75 74 75 75 75 74 73 72 73 73 71 70 70 70 70 69 69 68 68 68 68 66 68 71 70 70 72 72 72 72 71 70 69 70 74 74 72 72
67 68 68 68 68 67 68 68 69 70 71 71 71 72 72 73 74 74 73 74 72 69 69 69 72 76 76 75 75 75 74 73 72 72 73 70 70 70 70 71 70 69 70 68 69 68 68 69 68 70 70 72 71 71 70 69 70 74 77 76 75 76
68 68 69 68 68 68 68 68 68 68 68 68 69 70 71 73 74 74 73 72 72 71 70 69 68 68 71 74 75 74 74 74 73 73 73 71 70 68 71 71 70 69 67 68 67 69 70 70 69 69 68 69 71 71 72 71 72 71 72 76 78 77
68 69 69 69 69 69 69 68 67 67 67 67 67 67 68 70 72 73 73 74 74 73 72 68 68 69 71 69 72 74 74 74 73 73 73 73 73 72 72 71 70 68 68 70 71 72 70 70 68 67 66 67 70 72 71 70 70 70 72 76 76 77
MSLP
1015.09 1014.81 1014.69 1014.69 1014.73 1014.93 1015.13 1015.45 1015.69 1015.85 1015.97 1016.05 1016.09 1016.09 1016.13 1016.21 1016.29 1016.37 1016.45 1016.57 1016.65 1016.61 1016.65 1016.85 1017.13 1017.05 1017.49 1017.53 1017.73 1017.85 1017.97 1018.05 1018.17 1018.25 1018.29 1018.33 1018.37 1018.41 1018.49 1018.61 1018.69 1018.81 1018.89 1018.97 1019.09 1019.17 1019.25 1019.25 1019.17 1018.97 1018.81 1018.73 1018.61 1018.37 1017.73 1017.73 1017.69 1017.89 1018.21 1018.65 1019.09 1019.49
1015.01 1014.85 1014.61 1014.73 1014.73 1014.77 1015.13 1015.41 1015.61 1015.85 1016.01 1016.13 1016.17 1016.09 1016.13 1016.05 1016.13 1016.17 1016.45 1016.57 1016.57 1016.49 1016.49 1016.65 1016.69 1017.05 1017.13 1017.45 1017.73 1017.93 1018.01 1018.13 1018.21 1018.33 1018.33 1018.37 1018.41 1018.45 1018.53 1018.65 1018.73 1018.77 1018.85 1018.93 1018.97 1018.89 1019.13 1019.29 1019.17 1019.01 1018.85 1018.73 1018.65 1017.93 1017.85 1017.65 1017.65 1017.77 1018.25 1018.77 1019.21 1019.81
1014.53 1014.61 1014.93 1014.97 1015.05 1015.05 1015.25 1015.45 1015.57 1015.81 1016.01 1016.17 1016.09 1016.05 1015.93 1015.97 1015.97 1016.01 1016.25 1016.33 1016.49 1016.49 1016.49 1016.53 1016.69 1016.73 1016.73 1017.13 1017.49 1017.89 1018.05 1018.13 1018.25 1018.33 1018.41 1018.41 1018.45 1018.53 1018.61 1018.69 1018.73 1018.77 1018.69 1018.69 1018.61 1018.25 1018.53 1018.73 1018.81 1018.89 1018.77 1018.61 1018.17 1017.89 1017.93 1017.89 1017.85 1018.13 1018.61 1019.09 1019.49 1019.97
1014.65 1014.77 1015.05 1015.13 1015.21 1015.37 1015.37 1015.65 1015.81 1015.85 1016.21 1016.17 1016.05 1015.97 1015.97 1015.81 1015.89 1015.97 1016.33 1016.53 1016.53 1016.61 1016.77 1016.89 1016.53 1016.61 1016.85 1017.21 1017.61 1017.85 1018.05 1018.17 1018.21 1018.29 1018.33 1018.33 1018.49 1018.57 1018.65 1018.77 1018.81 1018.73 1018.69 1018.53 1018.05 1017.65 1017.85 1018.17 1018.29 1018.33 1018.17 1017.85 1017.89 1017.93 1017.81 1017.89 1017.93 1018.25 1018.77 1019.25 1019.61 1020.05
1014.65 1014.89 1015.13 1015.33 1015.49 1015.69 1015.73 1015.97 1016.25 1016.41 1016.65 1016.41 1016.53 1016.29 1016.37 1016.41 1016.49 1016.45 1016.77 1016.73 1016.61 1016.77 1016.85 1016.69 1016.49 1016.61 1016.77 1016.97 1017.33 1017.57 1017.89 1017.93 1017.97 1018.05 1018.21 1017.97 1018.09 1018.33 1018.49 1018.49 1018.69 1018.73 1018.29 1018.05 1017.57 1017.33 1017.45 1017.85 1017.89 1017.73 1017.65 1017.77 1017.81 1017.73 1017.73 1017.77 1017.97 1018.17 1018.85 1019.49 1019.89 1020.13
1014.81 1014.97 1015.41 1015.69 1015.61 1015.73 1015.97 1016.33 1016.73 1017.01 1016.97 1016.89 1016.93 1016.93 1016.73 1016.85 1016.69 1016.73 1017.29 1017.09 1016.77 1016.81 1016.77 1016.81 1016.85 1016.65 1016.61 1016.69 1016.97 1017.25 1017.41 1017.45 1017.65 1017.77 1017.85 1017.65 1017.73 1017.97 1018.01 1017.97 1018.17 1018.29 1018.05 1017.57 1017.33 1017.41 1017.45 1017.61 1017.77 1017.73 1017.77 1017.89 1017.93 1017.73 1017.45 1017.53 1017.81 1018.17 1019.05 1019.61 1020.05 1020.21
1015.09 1015.37 1015.61 1015.37 1015.65 1015.93 1016.37 1016.89 1017.25 1017.25 1017.41 1017.65 1017.37 1017.01 1016.85 1016.49 1016.33 1016.49 1016.97 1017.17 1016.85 1016.89 1016.93 1016.97 1016.93 1016.73 1016.65 1016.61 1016.81 1016.69 1016.89 1017.01 1017.25 1017.37 1017.45 1017.21 1017.45 1017.69 1017.61 1017.69 1017.85 1017.97 1017.77 1017.49 1017.37 1017.41 1017.53 1017.57 1017.53 1017.73 1017.89 1017.81 1017.65 1017.65 1017.61 1017.69 1017.81 1018.21 1018.85 1019.49 1020.09 1020.37
1015.93 1015.81 1015.77 1015.89 1016.29 1016.41 1016.93 1017.33 1017.57 1017.61 1017.97 1017.57 1017.37 1017.17 1016.97 1016.49 1016.25 1016.33 1016.57 1016.81 1016.65 1016.73 1017.09 1017.45 1017.69 1017.41 1017.05 1017.01 1016.81 1016.65 1016.65 1016.73 1016.81 1016.93 1017.01 1016.85 1017.33 1017.53 1017.57 1017.49 1017.65 1017.69 1017.61 1017.37 1017.37 1017.41 1017.33 1017.57 1017.69 1017.61 1017.81 1017.97 1017.93 1017.81 1017.65 1017.69 1017.89 1018.01 1018.49 1019.29 1019.89 1020.37
1016.29 1016.81 1016.89 1016.61 1016.93 1017.33 1017.37 1017.65 1017.77 1017.77 1017.81 1017.49 1017.37 1017.21 1016.65 1016.41 1016.29 1016.37 1016.61 1016.65 1016.85 1017.01 1017.77 1017.33 1017.45 1018.05 1017.77 1017.61 1017.13 1017.01 1016.85 1016.77 1016.65 1016.53 1016.69 1016.81 1017.05 1017.53 1017.53 1017.45 1017.53 1017.53 1017.37 1017.25 1017.21 1017.33 1017.37 1017.61 1017.69 1017.69 1017.81 1017.89 1018.01 1018.09 1017.97 1017.89 1017.89 1017.77 1018.05 1018.57 1019.41 1020.17
1015.77 1016.29 1016.97 1017.13 1017.49 1017.33 1017.37 1017.25 1017.37 1017.25 1017.05 1016.65 1016.53 1016.09 1015.61 1015.29 1015.05 1015.21 1015.09 1015.33 1015.85 1016.53 1016.89 1017.01 1017.05 1017.33 1017.57 1017.97 1017.73 1017.33 1017.05 1016.89 1016.69 1016.29 1016.49 1016.73 1016.81 1017.09 1017.45 1017.41 1017.53 1017.45 1017.33 1017.21 1017.21 1017.25 1017.41 1017.69 1017.65 1017.69 1017.77 1018.09 1018.21 1018.09 1018.09 1017.93 1017.85 1017.93 1018.01 1018.61 1019.33 1020.09
1014.81 1014.85 1015.29 1015.85 1016.01 1016.17 1016.21 1016.29 1016.49 1016.57 1016.57 1015.93 1015.49 1015.21 1014.85 1014.57 1014.53 1014.53 1014.69 1014.93 1015.25 1015.69 1016.21 1016.65 1016.89 1017.21 1017.53 1017.93 1018.37 1017.85 1017.33 1016.93 1016.73 1016.41 1016.33 1016.65 1016.57 1016.89 1017.17 1017.33 1017.41 1017.45 1017.17 1017.05 1017.13 1017.17 1017.37 1017.57 1017.49 1017.69 1017.77 1017.93 1018.13 1018.09 1018.05 1017.93 1017.93 1017.93 1018.09 1018.49 1019.05 1019.49
1015.05 1015.17 1015.61 1015.69 1015.73 1015.77 1015.77 1015.69 1015.65 1015.69 1015.53 1015.05 1014.81 1014.77 1014.53 1014.45 1014.41 1014.37 1014.49 1014.81 1015.13 1015.69 1016.05 1016.49 1016.93 1017.09 1017.45 1017.61 1018.05 1017.73 1017.37 1016.77 1016.57 1016.37 1016.37 1016.49 1016.69 1016.73 1017.05 1017.21 1017.17 1017.17 1017.01 1016.89 1017.13 1017.29 1017.29 1017.45 1017.53 1017.57 1017.69 1018.05 1018.09 1018.05 1018.05 1018.05 1018.17 1018.17 1018.29 1018.49 1018.85 1019.13
1014.73 1014.97 1015.25 1015.29 1015.29 1015.21 1015.21 1015.01 1015.13 1015.17 1015.05 1014.73 1014.61 1014.53 1014.49 1014.41 1014.33 1014.33 1014.57 1014.77 1014.97 1015.33 1015.73 1016.33 1016.65 1016.77 1017.13 1017.37 1017.93 1018.33 1017.97 1017.45 1016.73 1016.53 1016.53 1016.57 1016.61 1016.69 1017.01 1017.21 1017.29 1017.09 1017.25 1017.29 1017.41 1017.45 1017.37 1017.41 1017.53 1017.61 1017.77 1018.09 1018.01 1018.05 1018.01 1018.13 1018.25 1018.41 1018.57 1018.65 1018.81 1018.93
1014.53 1014.77 1015.05 1015.09 1015.09 1014.97 1014.85 1014.81 1014.57 1014.41 1014.41 1014.49 1014.45 1014.49 1014.41 1014.29 1014.29 1014.37 1014.49 1014.85 1015.01 1015.17 1015.49 1015.61 1015.93 1016.45 1016.53 1016.77 1017.05 1017.41 1018.05 1017.77 1016.89 1016.73 1016.69 1016.73 1016.89 1016.85 1017.09 1017.53 1017.81 1017.33 1017.49 1017.69 1017.73 1017.61 1017.69 1017.77 1017.65 1017.69 1018.01 1018.01 1017.89 1018.05 1018.21 1018.29 1018.41 1018.61 1018.65 1018.65 1018.65 1018.85
1014.61 1014.65 1014.65 1014.53 1014.49 1014.49 1014.49 1014.41 1014.29 1014.21 1014.17 1014.29 1014.33 1014.41 1014.29 1014.29 1014.45 1014.53 1014.45 1014.73 1015.01 1015.25 1015.49 1015.65 1015.89 1016.37 1016.61 1016.89 1017.21 1017.33 1017.29 1017.53 1017.45 1016.89 1017.09 1017.01 1017.17 1017.09 1017.09 1017.45 1017.33 1017.37 1017.41 1017.93 1017.57 1017.65 1017.73 1017.77 1017.89 1017.97 1018.13 1017.97 1018.05 1018.29 1018.37 1018.37 1018.45 1018.65 1018.65 1018.69 1018.73 1018.77
1014.45 1014.41 1014.25 1014.05 1014.01 1014.13 1014.25 1014.29 1014.13 1014.09 1014.13 1014.21 1014.37 1014.37 1014.41 1014.45 1014.57 1014.53 1014.57 1014.65 1015.05 1015.25 1015.45 1015.61 1015.97 1016.17 1016.61 1016.77 1016.93 1017.21 1017.13 1017.01 1017.37 1017.01 1016.97 1017.25 1017.57 1017.69 1017.29 1017.13 1016.97 1017.09 1017.69 1017.69 1017.65 1017.81 1017.69 1017.81 1017.89 1018.05 1018.05 1018.13 1018.21 1018.33 1018.45 1018.53 1018.69 1018.61 1018.53 1018.65 1018.69 1018.77
1014.57 1014.33 1014.29 1014.29 1014.33 1014.37 1014.29 1014.25 1014.21 1014.17 1014.13 1014.25 1014.33 1014.41 1014.33 1014.29 1014.49 1014.73 1014.73 1014.85 1015.21 1015.37 1015.53 1015.65 1015.85 1016.13 1016.41 1016.53 1016.69 1016.97 1017.17 1017.29 1017.45 1017.37 1017.21 1017.77 1017.57 1017.45 1017.65 1017.29 1017.05 1016.97 1017.13 1017.69 1017.69 1017.77 1017.73 1017.77 1017.89 1018.01 1018.17 1018.25 1018.37 1018.41 1018.57 1018.57 1018.57 1018.49 1018.45 1018.65 1018.69 1018.69
1014.53 1014.49 1014.53 1014.73 1014.77 1014.73 1014.65 1014.45 1014.33 1014.25 1014.21 1014.29 1014.33 1014.21 1014.21 1014.21 1014.25 1014.49 1014.85 1014.97 1014.93 1015.21 1015.49 1015.57 1015.85 1016.13 1016.29 1016.45 1016.61 1016.93 1017.21 1017.25 1017.25 1017.65 1017.93 1018.41 1018.09 1017.73 1017.97 1017.17 1017.37 1017.01 1017.01 1017.37 1017.57 1017.65 1017.85 1017.73 1017.85 1018.05 1018.25 1018.33 1018.33 1018.33 1018.41 1018.49 1018.41 1018.49 1018.73 1018.69 1018.69 1019.01
1014.85 1014.73 1014.85 1014.89 1014.89 1014.81 1014.69 1014.65 1014.41 1014.33 1014.45 1014.41 1014.29 1014.25 1014.17 1014.17 1014.21 1014.33 1014.65 1014.93 1015.01 1014.97 1015.29 1015.53 1015.73 1016.05 1016.37 1016.57 1016.85 1017.09 1017.37 1017.29 1017.13 1017.21 1017.89 1018.73 1018.73 1018.53 1018.05 1017.13 1017.21 1017.49 1017.05 1016.97 1017.17 1017.41 1017.49 1017.69 1017.97 1018.01 1018.21 1018.33 1018.25 1018.33 1018.29 1018.29 1018.61 1018.65 1018.89 1018.65 1018.81 1019.09
1014.93 1014.93 1015.05 1015.17 1015.17 1015.17 1014.93 1014.85 1014.93 1014.73 1014.81 1014.69 1014.49 1014.41 1014.37 1014.29 1014.33 1014.49 1014.49 1014.69 1014.93 1015.21 1015.57 1015.69 1015.89 1016.21 1016.61 1016.89 1017.01 1017.05 1017.09 1017.17 1017.37 1017.37 1017.45 1017.93 1018.45 1018.61 1017.93 1017.61 1017.21 1017.37 1017.61 1017.13 1017.21 1017.17 1017.25 1017.61 1017.89 1018.13 1018.29 1018.29 1018.33 1018.41 1018.77 1018.53 1018.53 1018.73 1018.57 1018.77 1019.05 1018.97
1014.89 1015.05 1015.33 1015.41 1015.41 1015.37 1015.41 1015.21 1015.01 1015.05 1015.05 1014.81 1014.77 1014.65 1014.57 1014.41 1014.57 1014.57 1014.65 1014.73 1015.37 1016.01 1015.77 1015.69 1016.45 1016.73 1016.77 1016.69 1016.81 1016.93 1017.09 1017.13 1017.17 1017.17 1017.13 1017.17 1017.17 1017.25 1017.61 1017.73 1017.17 1017.37 1017.61 1017.89 1017.49 1017.05 1017.17 1017.41 1018.09 1018.57 1018.41 1018.61 1018.65 1018.41 1018.49 1018.49 1018.81 1018.85 1018.85 1018.53 1018.97 1018.85
1014.97 1015.01 1015.25 1015.33 1015.49 1015.45 1015.25 1015.17 1015.21 1015.21 1015.29 1015.41 1015.45 1015.05 1014.77 1014.57 1014.77 1014.93 1015.17 1015.53 1015.69 1015.77 1015.73 1015.77 1016.33 1016.61 1016.57 1016.65 1016.81 1016.93 1016.97 1017.05 1017.05 1017.09 1016.93 1016.85 1016.89 1016.97 1017.29 1017.89 1017.53 1017.85 1017.49 1017.61 1017.53 1016.97 1017.17 1017.53 1018.37 1018.73 1019.21 1019.09 1019.05 1018.85 1018.73 1018.93 1019.13 1019.05 1018.69 1018.77 1018.97 1018.81
1015.37 1015.41 1015.37 1015.33 1015.25 1015.33 1015.21 1015.05 1015.09 1015.37 1015.73 1015.69 1015.49 1015.97 1016.13 1016.13 1016.09 1016.29 1016.21 1016.01 1015.93 1015.97 1015.89 1015.69 1016.33 1016.13 1016.17 1016.33 1016.41 1016.53 1016.81 1016.89 1017.01 1016.97 1016.97 1016.97 1016.93 1016.97 1016.93 1017.37 1018.13 1017.85 1017.65 1017.57 1017.65 1017.01 1017.05 1017.25 1018.37 1018.17 1018.13 1018.89 1019.57 1020.05 1019.65 1019.57 1019.37 1019.17 1018.97 1018.81 1018.61 1018.57
1015.61 1015.57 1015.49 1015.41 1015.41 1015.25 1015.25 1015.17 1015.05 1015.21 1015.21 1015.29 1015.69 1015.73 1015.93 1016.01 1015.97 1015.93 1016.05 1015.85 1015.85 1015.73 1015.61 1015.45 1015.45 1015.53 1015.69 1015.89 1016.01 1016.17 1016.29 1016.65 1016.89 1017.01 1016.85 1016.97 1017.09 1016.97 1016.81 1017.13 1017.93 1018.17 1017.65 1018.25 1017.93 1017.21 1016.81 1017.05 1017.33 1017.81 1019.33 1019.09 1019.05 1019.25 1020.05 1019.77 1019.53 1019.05 1018.57 1018.81 1018.61 1018.69
1015.69 1015.61 1015.53 1015.45 1015.45 1015.29 1015.29 1015.33 1015.25 1015.25 1015.29 1015.45 1015.41 1015.45 1015.57 1015.33 1015.37 1015.53 1015.65 1015.69 1015.61 1015.37 1015.33 1015.13 1015.17 1015.37 1015.37 1015.49 1015.61 1015.85 1016.09 1016.21 1016.49 1016.61 1016.81 1016.77 1016.85 1016.77 1016.73 1016.81 1017.45 1017.85 1017.85 1017.77 1017.61 1016.89 1016.89 1016.89 1017.17 1017.09 1017.73 1018.69 1019.69 1020.13 1019.69 1018.69 1018.89 1018.85 1018.45 1019.09 1018.69 1018.65
1015.65 1015.61 1015.53 1015.57 1015.49 1015.49 1015.61 1015.61 1015.69 1015.97 1016.13 1016.09 1015.97 1015.73 1015.73 1015.81 1015.65 1015.29 1015.29 1014.93 1015.05 1015.09 1014.89 1014.85 1014.97 1015.05 1015.09 1015.25 1015.49 1015.65 1015.85 1016.05 1016.29 1016.41 1016.45 1016.49 1016.41 1016.53 1016.45 1016.41 1016.97 1017.73 1017.93 1016.97 1017.17 1016.69 1017.13 1016.89 1017.01 1017.25 1017.25 1017.29 1017.53 1018.41 1018.73 1018.65 1018.93 1019.93 1018.85 1018.77 1018.69 1018.69
1015.81 1015.81 1015.65 1015.61 1015.53 1015.57 1015.57 1015.61 1015.69 1015.73 1015.77 1015.81 1015.89 1015.61 1015.33 1015.21 1015.13 1014.89 1014.81 1014.93 1014.73 1014.53 1014.57 1014.69 1014.77 1014.73 1014.77 1014.97 1015.29 1015.49 1015.65 1015.73 1015.89 1016.01 1016.21 1016.29 1016.29 1016.41 1016.29 1016.13 1016.29 1017.05 1017.57 1017.29 1016.57 1016.41 1016.85 1017.09 1017.25 1017.17 1017.21 1017.29 1017.45 1017.49 1017.37 1018.45 1019.17 1019.17 1020.13 1019.37 1019.41 1018.73
1016.37 1016.21 1016.05 1015.73 1015.53 1015.57 1015.85 1015.77 1015.77 1015.73 1015.53 1015.53 1015.49 1015.53 1015.21 1015.01 1014.77 1014.73 1014.73 1014.69 1014.53 1014.45 1014.41 1014.37 1014.37 1014.37 1014.41 1014.69 1015.01 1015.29 1015.37 1015.49 1015.69 1015.77 1016.05 1016.13 1016.05 1016.05 1016.17 1016.09 1015.89 1016.05 1015.93 1015.57 1015.85 1016.17 1016.57 1016.77 1017.53 1017.49 1017.17 1017.49 1017.61 1017.41 1017.17 1017.69 1017.81 1018.61 1018.77 1019.69 1019.61 1018.69
1016.93 1016.61 1016.37 1016.17 1016.05 1015.85 1015.77 1015.73 1015.69 1015.61 1015.69 1015.33 1015.25 1015.13 1014.85 1014.73 1014.81 1014.69 1014.85 1014.61 1014.53 1014.33 1014.17 1014.09 1014.01 1014.05 1014.09 1014.33 1014.65 1014.97 1015.17 1015.37 1015.41 1015.45 1015.69 1015.85 1015.69 1015.73 1015.97 1016.01 1015.93 1016.09 1016.05 1015.73 1015.77 1015.93 1016.17 1016.81 1017.05 1017.25 1017.45 1017.85 1017.65 1017.49 1017.29 1017.33 1017.49 1017.69 1018.97 1018.45 1019.09 1019.09
1017.13 1016.85 1016.73 1016.53 1016.21 1016.09 1016.01 1015.93 1015.97 1015.93 1016.01 1015.73 1015.41 1015.13 1014.97 1014.85 1014.77 1014.61 1014.69 1014.53 1014.41 1014.21 1014.05 1013.93 1013.97 1013.93 1013.97 1013.97 1014.13 1014.33 1014.61 1014.85 1014.97 1015.01 1015.17 1015.33 1015.29 1015.49 1015.69 1015.77 1015.81 1016.17 1016.29 1016.53 1016.05 1015.97 1015.97 1016.73 1016.89 1016.61 1016.85 1017.21 1017.81 1017.73 1017.49 1017.65 1017.73 1017.77 1017.33 1017.89 1017.97 1017.93
1017.53 1017.21 1017.01 1016.85 1016.61 1016.41 1016.13 1016.01 1015.97 1015.93 1015.97 1015.89 1015.65 1015.53 1015.37 1015.17 1014.89 1014.65 1014.61 1014.37 1014.13 1013.97 1013.89 1013.85 1013.73 1013.81 1013.81 1013.77 1013.85 1014.01 1014.29 1014.41 1014.57 1014.81 1015.01 1015.09 1014.97 1015.09 1015.33 1015.53 1015.69 1016.01 1016.41 1016.53 1016.41 1016.21 1016.25 1016.41 1015.93 1016.29 1016.61 1016.77 1016.97 1017.05 1017.45 1017.77 1017.69 1017.49 1017.29 1017.53 1017.77 1017.81
1017.73 1017.57 1017.33 1017.21 1017.01 1016.77 1016.45 1016.21 1016.01 1015.97 1015.93 1015.77 1015.69 1015.61 1015.57 1015.37 1014.97 1014.73 1014.49 1014.37 1013.97 1013.81 1013.77 1013.73 1013.69 1013.69 1013.73 1013.65 1013.77 1013.89 1013.89 1014.09 1014.21 1014.33 1014.45 1014.33 1014.45 1014.65 1014.97 1015.21 1015.41 1015.61 1015.81 1016.05 1016.13 1016.29 1016.49 1016.65 1016.05 1016.09 1016.29 1016.25 1016.41 1016.49 1016.77 1017.25 1017.37 1017.13 1017.09 1016.73 1017.09 1017.57
1018.17 1018.01 1017.85 1017.61 1017.41 1017.17 1016.89 1016.57 1016.41 1016.21 1016.01 1015.73 1015.61 1015.49 1015.29 1015.05 1014.77 1014.69 1014.41 1014.37 1014.33 1014.37 1013.89 1013.77 1013.69 1013.69 1013.57 1013.61 1013.69 1013.81 1013.81 1013.85 1013.89 1013.93 1014.05 1014.09 1014.09 1014.29 1014.57 1014.89 1015.01 1015.17 1015.45 1015.77 1015.93 1016.05 1016.49 1016.17 1015.97 1016.09 1016.09 1016.05 1016.25 1016.41 1016.65 1016.57 1016.73 1017.01 1016.81 1016.41 1016.49 1017.01
1018.29 1018.09 1017.97 1017.89 1017.61 1017.49 1017.21 1016.97 1016.57 1016.41 1016.21 1015.97 1015.73 1015.49 1015.25 1015.01 1014.69 1014.53 1014.37 1014.41 1014.61 1014.69 1014.93 1014.25 1013.49 1013.57 1013.29 1013.29 1013.41 1013.41 1013.53 1013.61 1013.53 1013.57 1013.73 1013.85 1013.93 1014.01 1014.21 1014.45 1014.69 1014.85 1015.09 1015.37 1015.77 1016.21 1016.13 1015.81 1015.85 1015.77 1015.77 1015.93 1015.97 1016.21 1016.33 1016.57 1017.09 1017.13 1016.53 1016.37 1016.77 1016.69
1018.25 1018.09 1018.09 1018.13 1017.97 1017.81 1017.61 1017.41 1017.09 1016.73 1016.41 1016.13 1015.93 1015.65 1015.37 1015.01 1014.73 1014.53 1014.69 1014.45 1014.41 1014.49 1014.29 1014.37 1013.77 1013.09 1012.97 1013.01 1013.05 1013.17 1013.21 1013.25 1013.37 1013.37 1013.41 1013.65 1013.81 1013.89 1014.05 1014.17 1014.25 1014.49 1014.69 1015.05 1015.61 1015.85 1015.89 1015.81 1015.73 1015.57 1015.65 1015.69 1015.85 1016.01 1016.17 1016.45 1016.81 1016.25 1015.77 1015.73 1015.97 1015.93
1018.21 1018.13 1018.05 1018.09 1017.93 1017.77 1017.65 1017.53 1017.41 1017.21 1016.97 1016.69 1016.41 1016.05 1015.57 1015.13 1014.85 1014.61 1014.65 1014.65 1014.45 1014.29 1014.25 1014.05 1014.01 1014.09 1013.37 1012.97 1012.81 1012.93 1012.97 1012.97 1012.97 1013.09 1013.17 1013.41 1013.73 1013.97 1013.89 1013.93 1013.97 1014.13 1014.49 1014.53 1015.09 1015.29 1015.29 1015.21 1015.29 1015.33 1015.49 1015.57 1015.77 1015.93 1016.01 1016.33 1016.45 1016.45 1016.33 1015.53 1015.33 1015.45
1018.45 1018.29 1018.09 1018.01 1017.93 1017.81 1017.65 1017.57 1017.57 1017.49 1017.29 1017.05 1016.73 1016.45 1016.05 1015.53 1015.13 1014.69 1014.49 1014.37 1014.29 1014.21 1014.17 1014.25 1013.89 1013.81 1013.53 1013.61 1012.93 1012.65 1012.73 1012.73 1012.81 1012.81 1012.85 1012.97 1013.13 1013.29 1013.41 1013.61 1013.69 1013.89 1014.13 1014.09 1014.21 1014.33 1014.53 1014.81 1015.05 1015.29 1015.57 1015.57 1015.53 1015.69 1015.77 1015.73 1016.09 1016.61 1016.09 1015.33 1015.45 1015.37
Wind_Speed
7 8 11 11 10 11 13 14 12 13 13 13 12 13 12 12 12 12 12 12 12 12 11 10 10 9 11 9 6 8 9 7 6 5 4 4 6 8 9 10 10 10 11 12 11 10 9 7 5 6 7 6 8 8 3 5 5 6 7 7 8 8
5 4 4 6 7 9 9 14 13 12 11 12 12 14 12 11 13 11 11 10 9 8 8 9 9 11 8 10 9 10 9 7 6 6 4 4 6 8 10 10 11 11 11 12 14 8 7 6 6 8 8 9 8 1 2 5 4 6 7 7 8 8
7 8 7 6 5 6 11 9 12 11 9 11 13 13 11 11 11 10 11 9 6 5 5 6 7 9 7 9 11 11 10 9 7 6 6 5 6 8 10 10 11 11 12 13 11 6 6 6 6 10 10 8 5 4 4 4 5 6 8 8 8 9
8 9 8 8 6 5 9 5 4 7 3 8 10 11 9 10 9 9 8 4 4 3 2 3 10 10 13 9 10 12 11 10 9 6 7 7 7 8 10 10 10 11 9 8 7 6 7 6 5 5 6 5 5 5 5 5 5 7 7 8 8 10
8 9 9 7 6 6 7 6 3 5 2 2 6 5 5 5 1 3 5 2 4 4 3 1 6 8 8 8 8 8 9 8 8 8 8 7 7 8 9 8 7 8 7 7 7 4 5 5 4 3 3 4 3 4 4 5 5 6 7 7 8 9
7 7 7 6 7 6 6 3 3 3 2 2 5 4 5 1 3 4 6 3 3 5 4 4 5 8 7 8 8 8 8 8 9 9 9 8 7 7 8 8 8 8 6 6 3 3 4 3 3 4 4 4 4 5 3 4 5 7 7 6 7 8
5 5 6 5 6 4 3 3 2 2 3 5 4 5 3 4 3 3 4 6 3 5 3 3 6 5 7 8 7 7 8 8 9 9 10 8 8 8 7 7 7 7 6 6 5 4 4 4 3 4 4 5 2 3 3 5 5 6 6 6 7 7
5 4 2 3 3 4 2 3 3 4 6 7 6 3 4 6 5 3 4 5 5 3 3 2 3 5 5 6 6 6 7 7 8 8 9 8 7 7 7 7 7 7 7 6 6 6 5 4 3 2 3 3 3 3 2 4 4 5 8 8 7 6
2 2 5 3 2 4 2 2 2 3 3 8 7 7 6 9 8 8 10 10 7 4 1 1 2 2 5 5 3 6 6 6 7 8 9 7 8 7 7 7 7 7 7 6 6 5 5 5 3 3 3 4 3 2 2 3 4 5 5 4 7 8
3 2 2 2 5 4 2 6 4 3 5 7 8 7 8 5 6 5 5 5 7 4 5 4 2 1 4 5 4 6 6 6 7 6 7 7 7 7 7 6 7 7 8 7 6 5 4 5 5 4 3 4 3 2 3 3 3 3 4 6 9 8
7 6 6 5 8 7 8 7 9 9 10 9 7 3 5 4 3 3 3 5 4 4 2 5 2 3 1 1 3 7 5 7 7 7 6 7 6 7 7 6 7 8 7 7 6 5 6 5 5 5 4 5 3 3 3 1 2 3 3 6 6 7
2 2 6 3 4 5 5 6 8 7 6 6 4 4 3 3 3 3 3 4 5 4 4 3 3 3 3 4 6 7 7 8 6 6 6 6 7 7 7 7 8 7 6 6 5 5 5 5 5 5 5 4 4 3 3 2 2 2 3 3 5 6
4 3 5 3 3 3 4 5 5 5 4 4 4 4 3 3 3 2 3 4 5 6 7 6 6 4 3 5 2 3 5 6 7 5 6 7 8 7 7 6 6 7 5 5 5 6 5 5 5 5 4 5 4 4 3 3 3 3 3 4 4 4
4 4 4 3 3 4 4 3 4 5 5 4 3 4 4 3 3 3 3 5 5 5 6 5 5 5 5 2 1 1 5 7 6 6 7 6 6 6 7 7 8 7 6 5 6 6 6 6 5 4 5 5 4 3 3 4 3 3 4 4 4 4
7 7 7 8 8 7 5 5 5 4 4 4 4 4 4 3 3 4 3 4 5 5 6 6 4 2 1 2 0 2 1 4 9 4 5 6 5 6 6 8 9 8 7 8 7 6 7 6 6 6 5 5 4 4 4 3 4 5 5 4 3 3
6 7 8 9 8 7 6 5 4 4 4 4 4 4 4 3 3 4 5 4 5 5 5 6 6 4 4 4 2 3 3 3 8 5 6 2 5 6 7 8 8 8 7 8 7 7 7 6 6 6 5 4 4 4 4 4 4 5 5 5 5 4
7 8 7 6 5 4 4 5 5 4 4 4 5 5 4 4 4 4 4 4 3 4 5 6 6 6 5 4 3 2 4 4 7 9 4 5 6 5 6 8 7 8 7 7 8 8 7 6 6 6 5 5 5 5 4 5 6 5 4 5 5 4
6 6 5 4 5 5 5 5 5 4 5 5 5 5 5 5 5 5 3 4 3 5 6 6 6 6 6 4 4 4 4 6 6 5 5 4 5 5 7 8 8 8 8 8 8 9 8 7 6 6 6 6 6 5 4 5 4 5 4 5 3 4
4 3 2 3 5 6 6 6 6 6 6 6 5 5 5 5 5 4 5 5 6 4 6 6 7 6 7 7 7 6 5 3 3 4 4 6 6 6 10 8 8 8 9 9 8 8 8 7 6 6 6 7 5 5 4 4 4 3 5 3 4 4
2 0 1 2 3 5 6 6 7 6 6 6 6 6 6 5 5 5 4 4 4 3 3 4 2 3 4 5 7 7 6 3 4 4 5 5 8 10 11 10 10 6 9 9 8 7 8 7 7 6 6 6 5 5 6 5 3 5 2 4 3 2
2 5 1 2 4 5 6 6 6 6 7 6 6 6 5 4 4 4 4 4 3 5 6 3 4 1 5 7 7 6 6 6 6 5 5 7 9 6 3 8 7 5 9 7 9 8 8 7 7 6 6 6 6 5 5 5 2 2 6 5 4 5
2 3 2 3 3 4 5 5 5 5 5 5 7 6 6 5 4 4 4 4 7 6 3 4 4 7 7 9 8 6 5 8 7 6 6 5 6 2 4 10 6 7 9 8 8 9 7 8 8 8 8 7 6 4 2 4 8 8 5 4 6 7
6 5 4 3 4 4 4 5 5 3 3 3 1 2 5 8 6 4 5 5 4 5 9 5 7 8 8 9 10 8 7 8 6 7 6 6 4 5 5 7 7 7 8 9 9 9 9 9 7 8 6 5 6 5 4 4 6 8 7 7 7 5
4 3 2 3 4 4 5 5 4 4 5 4 3 4 3 7 6 4 4 6 5 6 8 8 7 8 8 9 10 10 6 7 7 9 6 6 5 7 5 4 7 10 6 7 8 9 9 10 9 7 7 6 5 7 6 8 6 6 8 7 7 6
3 3 2 2 3 4 4 4 4 4 3 4 4 4 5 4 3 4 5 5 7 8 10 10 9 9 9 9 10 9 7 5 6 6 7 7 7 7 6 5 6 7 11 9 9 9 9 10 10 6 6 6 3 3 6 4 8 6 7 5 9 9
5 4 3 3 2 3 3 3 3 3 3 3 4 3 3 2 5 3 5 5 8 9 10 9 9 10 10 9 8 8 8 8 8 7 7 7 7 6 8 8 10 12 12 12 9 9 8 7 8 7 5 4 2 2 5 3 7 6 6 8 4 9
5 5 4 4 5 4 4 4 4 3 4 4 4 2 3 5 5 5 5 6 7 7 8 9 9 9 9 9 8 8 10 8 8 8 8 7 8 8 8 9 7 9 12 11 11 8 10 8 6 7 7 6 5 4 2 5 7 3 5 4 7 10
9 8 7 5 6 4 5 4 4 4 4 4 4 4 4 5 5 5 7 8 7 6 8 9 9 10 10 9 6 6 7 7 7 6 9 9 11 9 6 6 8 11 10 9 8 8 8 7 8 7 8 9 7 6 6 6 7 7 7 8 9 8
9 9 9 9 7 6 6 6 5 5 5 4 5 5 4 4 5 6 7 7 7 7 7 8 9 10 10 10 9 9 9 10 9 8 9 10 11 10 9 8 10 8 9 7 7 7 7 7 8 8 7 8 8 8 8 7 8 8 8 9 7 9
9 7 8 10 8 6 6 5 5 6 7 6 5 5 6 6 6 6 7 8 8 7 7 7 7 8 9 9 10 10 9 10 8 9 9 12 12 11 10 9 7 9 5 7 6 7 8 6 9 8 8 6 6 9 7 7 7 9 7 5 5 8
9 8 8 8 9 9 7 6 6 6 7 7 8 7 8 7 7 7 8 8 7 7 6 6 6 6 8 9 9 9 9 9 7 7 8 9 10 10 11 10 7 7 8 10 6 6 4 9 9 8 8 9 10 9 7 8 8 8 7 8 5 6
10 10 9 9 8 8 8 7 6 6 7 7 8 8 8 9 9 9 9 9 8 7 6 6 6 6 6 7 7 7 9 8 8 7 8 10 10 8 7 9 8 7 7 8 8 7 7 11 8 7 8 9 9 6 6 7 8 8 7 7 7 6
10 11 10 9 9 9 9 9 8 8 8 8 8 8 9 9 9 9 8 9 8 8 7 6 6 6 7 7 7 7 7 8 9 10 8 9 11 10 9 10 11 10 10 9 9 8 11 11 8 8 8 7 6 5 6 6 4 4 8 5 5 7
10 9 9 10 9 9 9 9 9 9 9 8 10 9 9 10 9 8 8 7 6 7 7 9 6 7 7 6 7 8 8 8 9 9 10 11 13 13 12 11 11 10 10 10 7 10 11 9 8 8 7 7 7 7 5 3 7 8 9 7 7 8
11 11 10 10 9 10 9 9 10 10 9 9 9 10 10 10 9 9 9 8 6 7 7 7 10 6 7 7 7 7 8 8 8 9 10 10 10 10 11 10 10 10 7 7 10 10 8 8 9 10 8 7 6 6 6 3 8 9 8 9 8 7
11 11 11 10 9 9 9 8 9 10 11 11 10 9 10 11 10 9 7 8 7 7 7 6 8 10 8 7 7 7 8 9 9 9 10 11 12 10 13 11 8 7 8 7 10 13 11 10 8 8 7 7 7 7 6 8 8 5 8 9 7 5
11 10 9 10 10 10 10 9 9 10 10 11 11 11 11 13 13 11 9 8 7 7 7 5 6 9 8 8 8 8 8 9 9 10 11 11 11 11 10 11 10 8 9 11 11 11 9 8 6 5 5 9 9 7 7 6 5 9 9 4 7 4
Wind_Direction
125 153 152 154 158 157 156 161 156 157 160 155 159 160 162 161 160 166 165 167 166 169 162 149 157 151 145 155 150 132 157 164 168 167 166 146 131 139 140 134 132 129 132 130 124 124 123 135 169 181 226 236 251 261 78 117 122 108 104 112 104 101
149 133 130 138 172 161 155 168 168 166 169 168 164 169 172 178 179 175 183 173 183 184 165 157 165 145 163 134 143 147 155 177 171 166 148 144 140 145 151 143 141 145 140 142 152 145 141 149 188 213 215 231 248 175 85 62 70 91 97 97 101 106
156 154 165 149 169 176 165 174 168 170 173 178 180 180 182 182 180 179 182 174 182 187 170 168 156 168 160 159 139 154 159 173 176 159 144 140 149 153 157 153 154 158 167 171 186 153 148 156 182 214 223 228 233 89 97 106 82 76 80 85 94 103
160 162 163 161 171 181 166 171 161 161 188 185 182 193 183 181 184 172 165 168 166 195 281 230 161 160 122 131 137 149 161 166 171 169 150 157 154 161 160 161 162 181 190 195 214 159 156 160 171 197 216 196 114 153 136 120 107 104 96 103 101 123
162 162 166 167 171 174 170 179 156 124 267 269 211 195 190 209 273 162 102 216 173 204 198 176 164 163 172 155 157 160 161 172 175 178 183 186 179 157 176 171 174 201 207 205 216 159 148 152 190 176 99 104 138 95 102 117 120 115 99 91 105 118
153 169 180 179 177 172 178 156 152 167 152 336 269 170 227 63 195 192 150 228 198 217 184 193 221 184 182 172 165 161 177 172 173 177 195 188 184 173 189 175 179 191 215 219 188 156 154 163 150 153 134 117 147 181 144 96 91 85 94 106 112 114
161 166 199 167 159 170 157 160 141 94 166 213 221 246 169 189 202 190 184 190 212 190 201 207 249 190 200 178 175 176 175 172 177 177 189 203 174 187 192 179 183 195 205 219 174 162 167 170 156 133 151 165 153 110 135 139 124 110 109 117 107 111
193 167 225 130 173 189 132 55 212 182 196 229 226 204 175 194 196 220 200 187 194 196 209 172 258 300 195 209 186 180 173 175 177 178 196 204 171 192 188 187 190 193 215 203 179 176 168 135 161 157 119 109 143 161 113 88 102 126 136 128 137 125
348 331 264 199 116 6 100 118 275 206 191 211 203 227 198 184 201 183 186 191 178 187 167 186 223 174 327 297 215 193 181 182 187 187 190 196 183 187 205 191 194 204 201 198 186 184 151 157 162 158 167 142 87 94 116 121 173 148 125 112 104 121
112 201 266 315 79 135 192 165 145 255 254 210 243 195 209 195 189 210 181 191 176 167 146 212 187 183 194 236 253 198 196 189 206 194 185 197 187 196 196 203 196 212 200 203 183 181 162 161 182 151 163 123 163 147 139 175 146 106 116 134 124 120
181 198 167 161 164 169 192 166 175 200 205 216 204 206 211 208 201 188 203 173 174 130 150 166 189 168 217 221 269 245 196 207 199 199 184 201 193 198 192 207 203 201 209 202 188 165 199 175 169 170 158 164 161 165 158 161 127 102 146 128 125 142
276 47 72 133 152 192 206 194 193 191 212 201 198 214 206 208 214 195 187 187 156 170 183 134 216 214 197 218 229 259 211 206 194 190 193 203 205 193 199 202 210 207 220 213 181 176 204 183 178 179 165 134 190 173 169 148 136 132 108 132 146 159
205 162 162 178 177 185 208 186 191 195 218 219 192 217 224 212 211 208 182 193 204 185 184 185 199 187 191 226 234 275 307 254 206 185 207 212 208 198 198 205 208 210 204 215 196 192 195 199 182 171 150 174 182 195 147 173 150 156 149 155 167 146
186 183 175 175 220 201 199 201 203 202 208 200 222 222 219 215 215 225 208 200 201 203 199 202 181 176 212 211 220 156 273 307 255 179 202 205 217 208 203 194 217 203 189 208 202 199 197 193 187 164 168 191 186 166 166 178 164 154 170 176 172 164
190 186 184 192 198 200 188 203 196 206 203 208 219 230 241 209 229 241 238 201 204 204 213 211 185 146 207 240 85 285 253 271 286 214 218 202 226 220 214 202 213 200 186 206 201 202 203 194 191 178 169 205 158 161 201 185 160 179 184 169 180 195
192 196 199 198 196 194 191 197 211 211 201 205 224 232 222 237 246 243 235 228 197 212 214 217 200 190 205 216 190 232 248 256 287 258 207 163 211 226 227 217 205 210 194 203 201 199 202 197 188 182 174 184 175 185 185 189 178 190 183 175 195 177
204 211 217 216 211 202 200 206 212 216 227 211 226 229 226 215 231 247 241 242 198 206 216 216 214 203 212 216 217 205 237 261 254 251 169 214 218 229 235 221 217 209 209 203 208 202 203 194 193 178 179 182 185 193 184 191 186 202 166 206 188 184
212 229 233 236 237 229 224 234 221 220 225 227 224 233 236 230 226 217 220 253 231 200 208 216 213 208 213 221 226 224 229 226 243 295 336 250 248 246 247 220 213 213 207 208 207 204 201 200 189 185 184 189 188 192 189 204 171 202 183 203 190 165
223 228 242 254 251 244 241 237 241 235 230 232 238 234 240 242 227 219 216 211 231 223 200 219 214 215 217 214 220 229 243 249 222 198 190 272 282 262 251 228 208 209 212 211 206 204 207 198 199 193 192 190 189 184 198 191 196 209 213 175 128 229
175 73 307 274 246 254 251 241 243 238 240 245 245 239 245 248 240 232 227 230 225 215 267 222 216 187 232 249 241 234 230 245 256 220 193 176 225 234 229 223 214 209 222 208 215 212 209 202 204 197 192 190 186 182 206 213 201 215 251 124 244 184
109 114 235 241 244 253 247 253 255 253 252 239 244 256 250 240 254 251 251 258 157 274 240 207 81 332 243 243 248 252 244 243 247 242 217 210 224 217 265 256 221 209 223 216 214 202 203 201 198 196 187 186 194 199 198 231 224 261 221 191 203 201
91 52 16 321 309 284 276 268 272 277 294 312 305 286 254 241 261 342 319 318 326 307 275 230 168 213 223 229 228 236 241 239 237 241 241 233 248 230 158 245 215 220 227 219 218 200 194 201 204 205 195 191 194 191 234 238 209 217 217 218 216 202
29 8 340 334 298 291 306 297 292 326 316 314 214 222 330 320 349 315 342 309 270 264 270 233 230 215 228 229 227 222 224 233 238 245 236 246 254 252 207 223 242 239 221 217 221 211 197 201 207 210 206 190 194 184 228 247 237 223 202 223 213 179
20 342 344 2 315 301 301 299 292 284 291 290 301 313 287 277 269 233 254 260 253 261 254 254 238 226 225 230 228 229 217 220 220 231 228 236 228 236 218 199 220 245 229 231 228 211 200 202 225 198 197 203 184 208 205 218 211 227 213 211 225 190
16 11 354 346 316 310 303 290 296 290 266 267 245 257 265 247 258 229 240 218 235 237 247 245 235 230 234 226 233 227 219 206 220 220 226 239 233 222 221 190 204 246 228 223 218 205 195 205 217 227 217 179 168 215 227 203 182 203 191 222 207 212
24 23 21 29 353 302 293 292 303 299 279 274 275 266 267 283 266 261 258 245 218 226 244 245 242 242 236 224 223 229 222 207 223 223 219 227 229 219 212 208 198 208 233 220 221 198 191 195 216 211 228 246 323 224 188 154 175 210 200 214 203 213
16 19 16 7 355 315 311 313 317 306 298 293 292 265 253 237 253 262 249 251 255 250 244 244 247 247 243 232 221 226 235 216 213 212 223 230 230 221 216 214 216 198 211 222 221 199 189 187 199 216 218 229 242 225 235 137 199 111 200 189 236 205
19 18 23 0 356 355 328 318 311 302 300 295 302 303 293 282 277 267 265 268 260 251 249 251 249 245 245 237 208 212 231 227 219 200 216 229 228 223 216 214 220 243 226 211 204 210 183 184 184 207 211 217 219 238 228 208 240 206 199 186 194 205
15 7 8 14 2 350 341 330 320 313 312 299 300 299 295 285 273 271 270 264 265 265 255 247 254 258 253 243 226 218 221 237 225 208 209 223 222 220 215 208 215 236 233 214 213 215 196 178 196 215 193 226 230 229 217 231 234 220 224 208 193 190
18 10 2 356 352 353 348 329 318 328 328 313 310 299 298 289 283 276 269 267 268 259 261 262 248 253 259 248 244 236 226 225 213 222 203 212 221 217 214 216 208 224 244 263 233 217 214 191 218 206 193 199 211 227 226 236 237 239 232 231 208 193
22 15 7 0 346 341 342 335 332 329 321 311 307 307 299 296 290 286 279 277 270 265 256 265 258 245 254 254 247 237 228 222 214 218 214 215 217 217 212 206 196 208 214 215 233 226 245 227 203 194 197 202 212 213 213 215 223 229 224 210 164 203
22 16 10 1 351 344 333 333 323 316 309 307 305 301 297 291 288 285 285 284 280 272 260 255 252 256 252 247 240 240 236 224 210 200 202 202 217 210 198 201 203 193 198 204 223 221 211 226 209 210 209 214 220 218 204 222 224 229 233 226 196 193
21 9 5 1 355 353 345 346 344 336 318 310 303 294 289 292 289 286 287 290 300 296 265 241 254 258 259 249 244 238 233 230 225 217 207 212 207 206 200 204 203 197 195 200 213 218 218 215 204 209 213 214 218 219 234 242 260 263 232 234 238 204
14 10 5 359 355 353 355 349 342 338 331 321 315 304 297 295 297 295 297 304 312 293 294 283 258 256 254 247 242 235 233 229 226 220 216 214 212 210 209 208 199 200 194 199 207 221 223 205 207 210 223 225 215 219 238 239 231 213 226 204 217 217
13 13 11 2 354 351 348 347 341 338 336 331 325 317 313 307 300 302 309 306 295 305 302 299 284 262 250 247 240 238 233 228 227 225 215 213 214 213 216 217 207 204 192 187 210 200 214 196 209 209 214 223 219 219 224 233 255 235 228 214 214 208
11 9 8 3 358 353 351 348 343 342 345 341 332 322 315 315 312 306 300 300 307 300 296 305 310 298 287 275 245 244 240 238 229 226 220 218 220 225 222 213 205 182 194 186 214 200 205 197 200 198 212 226 229 226 217 208 228 267 245 225 219 214
14 9 9 8 358 1 350 352 355 347 345 336 333 329 322 320 322 315 306 302 298 293 291 293 284 291 284 259 260 239 242 235 232 226 225 223 225 226 221 217 211 194 200 201 199 197 203 203 194 196 219 235 228 220 218 223 214 223 250 233 231 199